全球星 M077星 (GLOBALSTAR M077)

导读 | 豆包AI

GLOBALSTAR M077是全球星(Globalstar)星座中的一颗通信卫星,于2010年10月19日发射,归属全球卫星通信系统运营。该卫星运行在倾角52.0°的近地轨道,轨道高度约1624×1627千米,为全球范围提供移动通信服务,补充完善全球星星座的覆盖能力,支持语音、数据等低速率通信传输,满足偏远地区、移动场景的通信需求,是全球星第二代卫星组网中的组成卫星之一。

基本信息
目录编号:
37191
目录名称:
GLOBALSTAR M077
国际标识:
2010-054D
轨道中心:
EARTH
卫星名称:
全球星 M077星
卫星全名:
全球星 M077星 (GLOBALSTAR M077)
卫星状态:
在轨 (已飞行5625 天)
发射日期:
2010-10-19 UTC
国别 :
(GLOB)
星等 :
--
轨道信息
数据来源 国际轨道数据
星历时间: 2026-03-13T18:44:12+0800
16小时前
查看轨道信息
半长轴: 8204.797km
偏心率: 0.0000852
轨道倾角: 51.999°
近地点辐角 149.667°
升交点赤经 62.381°
平近点角 19.443°
近地点: 1825.96km
远地点: 1827.36km
周期: 123.271分钟
每日圈数: 11.681565
详细信息
固有亮度:
5
最大亮度:
7.2
平衡模式:
三轴稳定
覆盖范围:
全球
运营商:
全球星公司
运营商所在国:
美国
使用方式:
暂无
卫星简介
全球星星座由48颗卫星加8颗备份星组成。这些卫星分布在8个倾角为52度的圆形轨道平面上,每个轨道平面6颗卫星,另有1 颗备用星。轨道高度约为1414km,传输时延和处理时延小于300ms,整个系统的覆盖区为南北纬70度以内的地区。该卫星已退役。
2D轨道图
3D轨道图
轨道高度分析图
轨道倾角分析图
轨道综合分析图
查看轨道综合分析图